This demonstration page uses our WeatherBlox Daily Observations layout. Learn more.

Left ArrowRight Arrow

47.50024, -111.30081

Hourly Observations for July 1, 2020

Temp ( °F °C ) Dew Point ( °F °C ) Humidity (%) Winds ( mph kmh ) Pressure ( in mb ) Visibility ( mi km ) Precip ( " mm )
12:53 am 00:53 Clear 55 12.8 40 4.4 57 57 SSW 18 30 29.71 1006 10 16 0.00 0.00
1:53 am 01:53 Mostly Cloudy 55 12.8 39 3.9 55 55 SW 21 33 29.70 1006 10 16 0.00 0.00
2:53 am 02:53 Mostly Clear 54 12.2 38 3.3 55 55 SSW 20 31 29.72 1006 10 16 0.00 0.00
3:53 am 03:53 Partly Cloudy 53 11.7 38 3.3 57 57 SSW 17 28 29.72 1007 10 16 0.00 0.00
4:53 am 04:53 Mostly Clear 52 11.1 38 3.3 59 59 SSW 16 26 29.71 1006 10 16 0.00 0.00
5:53 am 05:53 Sunny 52 11.1 38 3.3 59 59 SSW 18 30 29.71 1006 10 16 0.00 0.00
6:53 am 06:53 Sunny 53 11.7 38 3.3 57 57 SSW 18 30 29.71 1006 10 16 0.00 0.00
7:53 am 07:53 Sunny 57 13.9 38 3.3 49 49 SW 23 37 29.69 1006 10 16 0.00 0.00
8:53 am 08:53 Sunny 58 14.4 39 3.9 50 50 SSW 28 44 29.69 1005 10 16 0.00 0.00
9:53 am 09:53 Sunny 62 16.7 37 2.8 40 40 WSW 24 39 29.70 1006 10 16 0.00 0.00
10:53 am 10:53 Sunny 63 17.2 36 2.2 37 37 SW 28 44 29.69 1006 10 16 0.00 0.00
12:53 pm 12:53 Sunny 66 18.9 37 2.8 34 34 WSW 32 52 29.68 1005 10 16 0.00 0.00
1:53 pm 13:53 Partly Cloudy 69 20.6 40 4.4 35 35 SW 18 30 29.68 1005 10 16 0.00 0.00
2:53 pm 14:53 Mostly Sunny 65 18.3 39 3.9 39 39 SSW 18 30 29.70 1006 10 16 0.00 0.00
3:53 pm 15:53 Sunny 68 20 39 3.9 35 35 SW 14 22 29.67 1005 10 16 0.00 0.00
4:53 pm 16:53 Sunny 70 21.1 37 2.8 30 30 SW 18 30 29.67 1005 10 16 0.00 0.00
5:53 pm 17:53 Mostly Sunny 69 20.6 37 2.8 31 31 SW 15 24 29.67 1005 10 16 0.00 0.00
6:53 pm 18:53 Sunny 67 19.4 32 0 27 27 W 18 30 29.69 1005 10 16 0.00 0.00
7:53 pm 19:53 Sunny 64 17.8 31 -0.6 29 29 W 14 22 29.70 1006 10 16 0.00 0.00
8:53 pm 20:53 Sunny 58 14.4 33 0.6 39 39 SW 9 15 29.74 1007 10 16 0.00 0.00
9:53 pm 21:53 Clear 52 11.1 35 1.7 53 53 SW 10 17 29.77 1008 10 16 0.00 0.00
10:53 pm 22:53 Clear 49 9.4 35 1.7 59 59 SW 7 11 29.80 1009 10 16 0.00 0.00
11:53 pm 23:53 Partly Cloudy 49 9.4 36 2.2 61 61 SSW 8 13 29.80 1009 10 16 0.00 0.00

Powered by AerisWeather